{"data":{"norad_id":56844,"intl_designator":"2023-079X","name":"STARLINK-30136","alt_names":[],"object_type":"PAYLOAD","status":"ACTIVE","operator":null,"country":"US","launch_date":"2023-06-04","launch_site_code":"AFETR","launch_vehicle":null,"mission":null,"orbit_class":"UNKNOWN","rcs_meters":null,"size_class":null,"mass_kg":null,"dimensions":null,"purposes":["comms"],"wikipedia_slug":null,"has_3d_model":false,"image_url":null,"decayed_at":null,"tle_current":{"epoch":"2026-05-24T23:15:10.635840Z","epoch_age_seconds":77489,"freshness":"FRESH","line1":"1 56844U 23079X   26144.96887310 -.00002489  00000+0 -80912-4 0  9995","line2":"2 56844  43.0063  36.2103 0000999 214.5157 145.5630 15.27590345164558","mean_motion":15.27590345,"eccentricity":9.99e-5,"inclination_deg":43.0063,"raan_deg":36.2103,"arg_perigee_deg":214.5157,"mean_anomaly_deg":145.563,"bstar":-8.0912e-5,"rev_number":16455,"period_min":94.266110329468,"perigee_km":482.33269016643,"apogee_km":483.70354895932,"semimajor_km":6861.1551195629,"source":"CELESTRAK","updated_at":"2026-05-25T13:38:18.166130Z"}}}